| time (UTC) | temp F | wind direction | speed MPH | gust MPH | rain 1hr in | rain 24hr in | rain mn in | humidity % | barometer mb |
| 20260905101546 | 71 | 326 | 9.0 | 23.0 | 0.01 | 0.07 | 0.01 | 81 | 1013.3 |
| 20260905101432 | 72 | 307 | 9.0 | 23.0 | 0.00 | 0.06 | 0.00 | 80 | 1014.9 |
| 20260905101412 | 73 | 259 | 9.0 | 23.0 | 0.00 | 0.06 | 0.00 | 79 | 1015.3 |
| 20260905100432 | 74 | 313 | 10.0 | 26.0 | 0.00 | 0.06 | 0.00 | 79 | 1015.1 |
| 20260905100055 | 73 | 336 | 8.0 | 26.0 | 0.00 | 0.06 | 0.00 | 82 | 1013.6 |
| 20260905095904 | 74 | 315 | 8.0 | 26.0 | 0.00 | 0.06 | 0.00 | 84 | 1015.0 |
| 20260905095601 | 74 | 328 | 3.0 | 18.0 | 0.00 | 0.06 | 0.00 | 89 | 1014.5 |
| 20260905094836 | 74 | 326 | 0.0 | 5.0 | 0.00 | 0.06 | 0.00 | 91 | 1013.5 |
| 20260905094544 | 74 | 5 | 0.0 | 0.0 | 0.00 | 0.06 | 0.00 | 91 | 1011.5 |
| 20260905094305 | 74 | 5 | 0.0 | 0.0 | 0.00 | 0.06 | 0.00 | 91 | 1012.8 |
| 20260905094032 | 74 | 5 | 0.0 | 0.0 | 0.00 | 0.06 | 0.00 | 91 | 1012.6 |
| 20260905093237 | 74 | 5 | 0.0 | 0.0 | 0.00 | 0.06 | 0.00 | 91 | 1012.7 |
| 20260905093100 | 74 | 5 | 0.0 | 0.0 | 0.00 | 0.06 | 0.00 | 91 | 1011.2 |
| 20260905092731 | 74 | 5 | 0.0 | 0.0 | 0.00 | 0.06 | 0.00 | 91 | 1012.7 |
| 20260905092227 | 74 | 5 | 0.0 | 0.0 | 0.00 | 0.06 | 0.00 | 90 | 1012.7 |
| 20260905091933 | 74 | 5 | 0.0 | 0.0 | 0.00 | 0.06 | 0.00 | 90 | 1012.7 |
| 20260905091610 | 74 | 5 | 0.0 | 0.0 | 0.00 | 0.06 | 0.00 | 90 | 1011.2 |
| 20260905091407 | 74 | 5 | 0.0 | 0.0 | 0.00 | 0.06 | 0.00 | 90 | 1012.6 |
| 20260905090607 | 74 | 5 | 0.0 | 0.0 | 0.00 | 0.06 | 0.00 | 90 | 1012.7 |
| 20260905090106 | 74 | 5 | 0.0 | 0.0 | 0.00 | 0.06 | 0.00 | 90 | 1012.6 |
| 20260905090036 | 74 | 5 | 0.0 | 0.0 | 0.00 | 0.06 | 0.00 | 90 | 1011.1 |
| 20260905085553 | 74 | 5 | 0.0 | 0.0 | 0.00 | 0.06 | 0.00 | 89 | 1012.5 |
| 20260905085054 | 74 | 5 | 0.0 | 0.0 | 0.00 | 0.06 | 0.00 | 89 | 1012.4 |
| 20260905084740 | 75 | 5 | 0.0 | 0.0 | 0.00 | 0.06 | 0.00 | 89 | 1012.4 |
| 20260905084542 | 74 | 5 | 0.0 | 0.0 | 0.00 | 0.06 | 0.00 | 89 | 1010.9 |
| 20260905084022 | 75 | 5 | 0.0 | 0.0 | 0.00 | 0.06 | 0.00 | 89 | 1012.5 |
| 20260905083715 | 75 | 5 | 0.0 | 0.0 | 0.00 | 0.06 | 0.00 | 89 | 1012.8 |
| 20260905083056 | 74 | 5 | 0.0 | 0.0 | 0.00 | 0.06 | 0.00 | 89 | 1011.3 |
| 20260905082927 | 75 | 5 | 0.0 | 0.0 | 0.00 | 0.06 | 0.00 | 89 | 1012.8 |
| 20260905082428 | 75 | 5 | 0.0 | 0.0 | 0.00 | 0.06 | 0.00 | 89 | 1012.8 |
| 20260905081900 | 75 | 5 | 0.0 | 0.0 | 0.00 | 0.06 | 0.00 | 89 | 1012.8 |
| 20260905081524 | 74 | 5 | 0.0 | 0.0 | 0.00 | 0.06 | 0.00 | 89 | 1011.3 |
| 20260905081336 | 75 | 5 | 0.0 | 0.0 | 0.00 | 0.06 | 0.00 | 89 | 1012.7 |
| 20260905080812 | 75 | 5 | 0.0 | 1.0 | 0.00 | 0.06 | 0.00 | 89 | 1012.8 |
| 20260905080243 | 75 | 5 | 0.0 | 1.0 | 0.00 | 0.06 | 0.00 | 89 | 1012.8 |
| 20260905080105 | 74 | 5 | 0.0 | 1.0 | 0.00 | 0.06 | 0.00 | 89 | 1011.2 |
| 20260905075713 | 75 | 5 | 0.0 | 1.0 | 0.00 | 0.06 | 0.00 | 89 | 1012.6 |
| 20260905075145 | 75 | 5 | 0.0 | 1.0 | 0.00 | 0.06 | 0.00 | 89 | 1012.5 |
| 20260905074644 | 75 | 5 | 0.0 | 2.0 | 0.00 | 0.06 | 0.00 | 89 | 1012.4 |
| 20260905074508 | 74 | 5 | 0.0 | 2.0 | 0.00 | 0.06 | 0.00 | 89 | 1010.9 |
| 20260905074114 | 75 | 5 | 1.0 | 2.0 | 0.00 | 0.06 | 0.00 | 89 | 1012.2 |
| 20260905073612 | 75 | 5 | 1.0 | 2.0 | 0.00 | 0.06 | 0.00 | 89 | 1012.1 |
| 20260905073104 | 75 | 5 | 0.0 | 1.0 | 0.00 | 0.06 | 0.00 | 89 | 1010.6 |
| 20260905073046 | 75 | 5 | 0.0 | 1.0 | 0.00 | 0.06 | 0.00 | 89 | 1012.1 |
| 20260905072542 | 75 | 5 | 0.0 | 0.0 | 0.00 | 0.06 | 0.00 | 89 | 1012.0 |
| 20260905072014 | 75 | 5 | 0.0 | 0.0 | 0.00 | 0.06 | 0.00 | 89 | 1012.1 |
| 20260905071510 | 75 | 5 | 0.0 | 0.0 | 0.00 | 0.06 | 0.00 | 88 | 1012.2 |
| 20260905070945 | 75 | 5 | 0.0 | 0.0 | 0.00 | 0.06 | 0.00 | 88 | 1012.0 |
| 20260905070420 | 75 | 5 | 0.0 | 0.0 | 0.00 | 0.06 | 0.00 | 88 | 1012.1 |
| 20260905070408 | 75 | 5 | 0.0 | 1.0 | 0.00 | 0.06 | 0.00 | 88 | 1012.1 |
| 20260905070044 | 75 | 5 | 0.0 | 0.0 | 0.00 | 0.06 | 0.00 | 88 | 1010.6 |
| 20260905065414 | 75 | 5 | 0.0 | 2.0 | 0.00 | 0.06 | 0.00 | 88 | 1012.2 |
| 20260905065113 | 75 | 5 | 1.0 | 3.0 | 0.00 | 0.06 | 0.00 | 88 | 1012.2 |
| 20260905064535 | 75 | 5 | 0.0 | 3.0 | 0.00 | 0.06 | 0.00 | 88 | 1010.8 |
| 20260905064039 | 76 | 5 | 0.0 | 1.0 | 0.00 | 0.06 | 0.00 | 88 | 1012.4 |
| 20260905063501 | 76 | 4 | 0.0 | 2.0 | 0.00 | 0.06 | 0.00 | 87 | 1012.6 |
| 20260905063347 | 76 | 4 | 0.0 | 1.0 | 0.00 | 0.06 | 0.00 | 87 | 1012.5 |
| 20260905063024 | 75 | 4 | 0.0 | 1.0 | 0.00 | 0.06 | 0.00 | 87 | 1011.1 |
| 20260905062221 | 76 | 4 | 1.0 | 2.0 | 0.00 | 0.06 | 0.00 | 87 | 1012.7 |
| 20260905061718 | 76 | 4 | 0.0 | 1.0 | 0.00 | 0.06 | 0.00 | 87 | 1012.8 |
| 20260905061555 | 75 | 4 | 0.0 | 1.0 | 0.00 | 0.06 | 0.00 | 87 | 1011.3 |
| 20260905061154 | 76 | 4 | 0.0 | 1.0 | 0.00 | 0.06 | 0.00 | 87 | 1013.0 |
| 20260905060905 | 76 | 4 | 0.0 | 1.0 | 0.00 | 0.06 | 0.00 | 88 | 1013.1 |
| 20260905060624 | 76 | 4 | 0.0 | 1.0 | 0.00 | 0.06 | 0.00 | 88 | 1013.1 |
| 20260905060002 | 75 | 4 | 0.0 | 1.0 | 0.00 | 0.06 | 0.00 | 88 | 1011.6 |
| 20260905055614 | 76 | 4 | 0.0 | 1.0 | 0.00 | 0.06 | 0.00 | 88 | 1013.2 |
| 20260905055112 | 76 | 4 | 0.0 | 1.0 | 0.00 | 0.06 | 0.00 | 88 | 1013.1 |
| 20260905054546 | 76 | 4 | 0.0 | 1.0 | 0.00 | 0.06 | 0.00 | 88 | 1013.1 |
| 20260905054518 | 75 | 4 | 0.0 | 1.0 | 0.00 | 0.06 | 0.00 | 88 | 1011.5 |
| 20260905054020 | 76 | 4 | 0.0 | 1.0 | 0.00 | 0.06 | 0.00 | 88 | 1013.2 |
| 20260905054003 | 76 | 4 | 0.0 | 2.0 | 0.00 | 0.06 | 0.00 | 88 | 1013.3 |
| 20260905053055 | 75 | 4 | 0.0 | 3.0 | 0.00 | 0.06 | 0.00 | 88 | 1011.7 |
| 20260905053014 | 76 | 4 | 1.0 | 3.0 | 0.00 | 0.06 | 0.00 | 88 | 1013.4 |
| 20260905052450 | 76 | 5 | 2.0 | 4.0 | 0.00 | 0.06 | 0.00 | 88 | 1013.5 |
| 20260905051920 | 76 | 4 | 2.0 | 4.0 | 0.00 | 0.06 | 0.00 | 87 | 1013.5 |
| 20260905051613 | 76 | 5 | 2.0 | 4.0 | 0.00 | 0.06 | 0.00 | 87 | 1011.9 |
| 20260905051420 | 76 | 4 | 1.0 | 4.0 | 0.00 | 0.06 | 0.00 | 87 | 1013.6 |
| 20260905050856 | 77 | 5 | 1.0 | 3.0 | 0.00 | 0.06 | 0.00 | 87 | 1013.6 |
| 20260905050352 | 77 | 5 | 0.0 | 1.0 | 0.00 | 0.06 | 0.00 | 88 | 1013.5 |
| 20260905050040 | 76 | 5 | 0.0 | 0.0 | 0.00 | 0.06 | 0.00 | 88 | 1011.9 |
| 20260905045852 | 77 | 5 | 0.0 | 0.0 | 0.00 | 0.06 | 0.00 | 88 | 1013.5 |
| 20260905045325 | 77 | 5 | 0.0 | 0.0 | 0.00 | 0.06 | 0.00 | 88 | 1013.5 |
| 20260905044825 | 76 | 5 | 0.0 | 0.0 | 0.00 | 0.06 | 0.00 | 88 | 1013.6 |
| 20260905044537 | 76 | 5 | 0.0 | 0.0 | 0.00 | 0.06 | 0.00 | 88 | 1012.0 |
| 20260905044259 | 77 | 5 | 0.0 | 1.0 | 0.00 | 0.06 | 0.00 | 88 | 1013.6 |
| 20260905043757 | 77 | 5 | 0.0 | 1.0 | 0.00 | 0.06 | 0.00 | 88 | 1013.6 |
| 20260905043231 | 77 | 5 | 0.0 | 1.0 | 0.00 | 0.06 | 0.00 | 88 | 1013.7 |
| 20260905043050 | 76 | 5 | 0.0 | 1.0 | 0.00 | 0.06 | 0.00 | 88 | 1012.1 |
| 20260905042704 | 77 | 5 | 0.0 | 0.0 | 0.00 | 0.06 | 0.00 | 88 | 1013.7 |
| 20260905042206 | 77 | 5 | 0.0 | 0.0 | 0.00 | 0.06 | 0.00 | 88 | 1013.7 |
| 20260905041638 | 77 | 5 | 0.0 | 0.0 | 0.00 | 0.06 | 0.00 | 88 | 1013.7 |
| 20260905041552 | 76 | 5 | 0.0 | 0.0 | 0.00 | 0.06 | 0.00 | 88 | 1012.1 |
| 20260905041140 | 77 | 5 | 0.0 | 0.0 | 0.00 | 0.06 | 0.00 | 88 | 1013.7 |
| 20260905040623 | 77 | 5 | 0.0 | 0.0 | 0.00 | 0.06 | 0.00 | 88 | 1013.8 |
| 20260905040343 | 77 | 5 | 0.0 | 0.0 | 0.00 | 0.06 | 0.00 | 88 | 1013.8 |
| 20260905040058 | 76 | 5 | 0.0 | 0.0 | 0.00 | 0.06 | 0.00 | 88 | 1012.2 |
| 20260905035601 | 77 | 5 | 0.0 | 0.0 | 0.00 | 0.06 | 0.06 | 88 | 1013.7 |
| 20260905035038 | 77 | 5 | 0.0 | 0.0 | 0.00 | 0.06 | 0.06 | 87 | 1013.8 |
| 20260905034537 | 77 | 5 | 0.0 | 0.0 | 0.00 | 0.06 | 0.06 | 87 | 1013.8 |
| 20260905034502 | 76 | 5 | 0.0 | 0.0 | 0.00 | 0.06 | 0.06 | 87 | 1012.2 |
| 20260905034001 | 77 | 5 | 0.0 | 0.0 | 0.00 | 0.06 | 0.06 | 87 | 1013.8 |
| 20260905033437 | 77 | 5 | 0.0 | 0.0 | 0.00 | 0.06 | 0.06 | 87 | 1013.8 |
| 20260905033047 | 76 | 5 | 0.0 | 0.0 | 0.00 | 0.06 | 0.06 | 87 | 1012.2 |
| 20260905032929 | 77 | 5 | 0.0 | 0.0 | 0.00 | 0.06 | 0.06 | 87 | 1013.8 |
| 20260905032428 | 76 | 5 | 0.0 | 0.0 | 0.00 | 0.06 | 0.06 | 87 | 1013.8 |
| 20260905031900 | 76 | 5 | 0.0 | 0.0 | 0.00 | 0.06 | 0.06 | 87 | 1013.8 |
| 20260905031524 | 76 | 5 | 0.0 | 0.0 | 0.00 | 0.06 | 0.06 | 87 | 1012.3 |
| 20260905031335 | 76 | 5 | 0.0 | 0.0 | 0.00 | 0.06 | 0.06 | 87 | 1013.9 |
| 20260905031028 | 76 | 5 | 0.0 | 0.0 | 0.00 | 0.06 | 0.06 | 87 | 1013.8 |
| 20260905030239 | 76 | 5 | 0.0 | 0.0 | 0.00 | 0.06 | 0.06 | 87 | 1013.8 |
| 20260905030039 | 76 | 5 | 0.0 | 0.0 | 0.00 | 0.06 | 0.06 | 87 | 1012.2 |
| 20260905025958 | 76 | 5 | 0.0 | 0.0 | 0.00 | 0.06 | 0.06 | 87 | 1013.7 |
| 20260905025231 | 76 | 5 | 0.0 | 1.0 | 0.00 | 0.06 | 0.06 | 88 | 1013.8 |
| 20260905024728 | 76 | 5 | 0.0 | 1.0 | 0.00 | 0.06 | 0.06 | 87 | 1013.8 |
| 20260905024553 | 76 | 5 | 0.0 | 1.0 | 0.00 | 0.06 | 0.06 | 87 | 1012.2 |
| 20260905024450 | 76 | 5 | 0.0 | 2.0 | 0.00 | 0.06 | 0.06 | 87 | 1013.8 |
| 20260905023721 | 76 | 5 | 1.0 | 3.0 | 0.00 | 0.06 | 0.06 | 87 | 1013.7 |
| 20260905023157 | 77 | 5 | 1.0 | 3.0 | 0.00 | 0.06 | 0.06 | 86 | 1013.7 |
| 20260905023024 | 76 | 6 | 1.0 | 3.0 | 0.00 | 0.06 | 0.06 | 86 | 1012.1 |
| 20260905022631 | 76 | 8 | 0.0 | 1.0 | 0.00 | 0.06 | 0.06 | 86 | 1013.7 |
| 20260905022101 | 76 | 8 | 0.0 | 0.0 | 0.00 | 0.06 | 0.06 | 86 | 1013.7 |
| 20260905021559 | 76 | 8 | 0.0 | 0.0 | 0.00 | 0.06 | 0.06 | 86 | 1013.7 |
| 20260905021529 | 76 | 8 | 0.0 | 0.0 | 0.00 | 0.06 | 0.06 | 86 | 1012.0 |
| 20260905021031 | 77 | 8 | 0.0 | 0.0 | 0.00 | 0.06 | 0.06 | 86 | 1013.7 |
| 20260905020531 | 77 | 8 | 0.0 | 0.0 | 0.00 | 0.06 | 0.06 | 85 | 1013.7 |
| 20260905020019 | 76 | 8 | 0.0 | 0.0 | 0.00 | 0.06 | 0.06 | 85 | 1012.0 |
| 20260905020002 | 77 | 8 | 0.0 | 0.0 | 0.00 | 0.06 | 0.06 | 85 | 1013.6 |
| 20260905015459 | 77 | 8 | 0.0 | 0.0 | 0.00 | 0.06 | 0.06 | 85 | 1013.6 |
| 20260905014954 | 76 | 8 | 0.0 | 1.0 | 0.00 | 0.06 | 0.06 | 85 | 1013.5 |
| 20260905014537 | 76 | 8 | 0.0 | 0.0 | 0.00 | 0.06 | 0.06 | 85 | 1011.7 |
| 20260905014454 | 76 | 8 | 0.0 | 1.0 | 0.00 | 0.06 | 0.06 | 85 | 1013.4 |
| 20260905014157 | 76 | 8 | 0.0 | 1.0 | 0.00 | 0.06 | 0.06 | 85 | 1013.3 |
| 20260905013415 | 76 | 9 | 0.0 | 1.0 | 0.00 | 0.06 | 0.06 | 85 | 1013.3 |
| 20260905013058 | 76 | 6 | 0.0 | 0.0 | 0.00 | 0.06 | 0.06 | 85 | 1011.5 |
| 20260905012919 | 76 | 6 | 0.0 | 1.0 | 0.00 | 0.06 | 0.06 | 85 | 1013.2 |
| 20260905012350 | 76 | 6 | 0.0 | 1.0 | 0.00 | 0.06 | 0.06 | 85 | 1013.2 |
| 20260905011848 | 76 | 6 | 0.0 | 1.0 | 0.00 | 0.06 | 0.06 | 85 | 1013.2 |
| 20260905011603 | 76 | 6 | 0.0 | 1.0 | 0.00 | 0.06 | 0.06 | 85 | 1011.4 |
| 20260905011339 | 76 | 5 | 0.0 | 1.0 | 0.00 | 0.06 | 0.06 | 85 | 1013.1 |
| 20260905010838 | 76 | 5 | 0.0 | 1.0 | 0.00 | 0.06 | 0.06 | 85 | 1013.1 |
| 20260905010313 | 76 | 5 | 0.0 | 1.0 | 0.00 | 0.06 | 0.06 | 85 | 1013.1 |
| 20260905010108 | 76 | 5 | 0.0 | 1.0 | 0.00 | 0.06 | 0.06 | 85 | 1011.4 |
| 20260905005813 | 76 | 5 | 0.0 | 1.0 | 0.00 | 0.06 | 0.06 | 85 | 1013.1 |
| 20260905005502 | 76 | 5 | 0.0 | 1.0 | 0.00 | 0.06 | 0.06 | 85 | 1013.1 |
| 20260905004728 | 76 | 5 | 0.0 | 0.0 | 0.00 | 0.06 | 0.06 | 85 | 1013.0 |
| 20260905004517 | 76 | 5 | 0.0 | 0.0 | 0.00 | 0.06 | 0.06 | 85 | 1011.3 |
| 20260905004231 | 76 | 5 | 0.0 | 0.0 | 0.00 | 0.06 | 0.06 | 85 | 1012.8 |
| 20260905003703 | 76 | 5 | 0.0 | 0.0 | 0.00 | 0.06 | 0.06 | 85 | 1013.0 |
| 20260905003203 | 76 | 5 | 0.0 | 0.0 | 0.00 | 0.06 | 0.06 | 85 | 1013.0 |
| 20260905003045 | 76 | 5 | 0.0 | 0.0 | 0.00 | 0.06 | 0.06 | 85 | 1011.3 |
| 20260905002657 | 76 | 5 | 0.0 | 0.0 | 0.00 | 0.06 | 0.06 | 85 | 1013.0 |
| 20260905002155 | 76 | 5 | 0.0 | 0.0 | 0.00 | 0.06 | 0.06 | 85 | 1013.1 |
| 20260905001632 | 76 | 5 | 0.0 | 1.0 | 0.00 | 0.06 | 0.06 | 85 | 1013.1 |
| 20260905001606 | 76 | 5 | 0.0 | 1.0 | 0.00 | 0.06 | 0.06 | 85 | 1011.3 |
| 20260905001102 | 77 | 5 | 0.0 | 1.0 | 0.00 | 0.06 | 0.06 | 85 | 1013.0 |
| 20260905000600 | 77 | 5 | 0.0 | 1.0 | 0.00 | 0.06 | 0.06 | 85 | 1013.1 |
| 20260905000035 | 77 | 5 | 0.0 | 2.0 | 0.00 | 0.06 | 0.06 | 86 | 1013.0 |
| 20260905000018 | 76 | 5 | 0.0 | 2.0 | 0.00 | 0.06 | 0.06 | 86 | 1011.2 |
| 20260904235731 | 77 | 5 | 0.0 | 2.0 | 0.00 | 0.06 | 0.06 | 86 | 1012.8 |
| 20260904235431 | 77 | 6 | 0.0 | 1.0 | 0.00 | 0.06 | 0.06 | 85 | 1012.8 |
| 20260904234522 | 77 | 7 | 0.0 | 1.0 | 0.00 | 0.06 | 0.06 | 85 | 1011.2 |
| 20260904234437 | 77 | 6 | 0.0 | 1.0 | 0.00 | 0.06 | 0.06 | 85 | 1012.8 |
| 20260904233935 | 78 | 6 | 0.0 | 1.0 | 0.00 | 0.06 | 0.06 | 85 | 1013.0 |
| 20260904233431 | 78 | 6 | 0.0 | 0.0 | 0.00 | 0.06 | 0.06 | 84 | 1013.1 |
| 20260904233040 | 77 | 6 | 0.0 | 1.0 | 0.00 | 0.06 | 0.06 | 84 | 1011.4 |
| 20260904232903 | 78 | 6 | 0.0 | 1.0 | 0.00 | 0.06 | 0.06 | 84 | 1013.1 |
| 20260904232402 | 78 | 11 | 1.0 | 3.0 | 0.00 | 0.06 | 0.06 | 83 | 1013.0 |
| 20260904231834 | 77 | 10 | 1.0 | 3.0 | 0.00 | 0.06 | 0.06 | 82 | 1013.0 |
| 20260904231528 | 77 | 9 | 0.0 | 3.0 | 0.00 | 0.06 | 0.06 | 82 | 1011.3 |
| 20260904231332 | 77 | 7 | 1.0 | 3.0 | 0.00 | 0.06 | 0.06 | 83 | 1013.0 |
| 20260904230804 | 78 | 5 | 1.0 | 3.0 | 0.00 | 0.06 | 0.06 | 83 | 1013.1 |
| 20260904230301 | 77 | 5 | 2.0 | 3.0 | 0.00 | 0.06 | 0.06 | 81 | 1013.1 |
| 20260904230055 | 77 | 5 | 1.0 | 3.0 | 0.00 | 0.06 | 0.06 | 81 | 1011.3 |
| 20260904225801 | 77 | 5 | 2.0 | 3.0 | 0.00 | 0.06 | 0.06 | 81 | 1013.0 |
| 20260904225227 | 77 | 5 | 2.0 | 3.0 | 0.00 | 0.06 | 0.06 | 81 | 1013.1 |
| 20260904224701 | 77 | 8 | 3.0 | 7.0 | 0.00 | 0.06 | 0.06 | 81 | 1013.1 |
| 20260904224549 | 77 | 9 | 2.0 | 7.0 | 0.00 | 0.06 | 0.06 | 81 | 1011.3 |
| 20260904224155 | 77 | 9 | 2.0 | 7.0 | 0.00 | 0.06 | 0.06 | 81 | 1013.1 |
| 20260904223655 | 77 | 1 | 2.0 | 3.0 | 0.00 | 0.06 | 0.06 | 82 | 1013.2 |
| 20260904223125 | 77 | 358 | 1.0 | 3.0 | 0.01 | 0.06 | 0.06 | 81 | 1013.4 |
| 20260904222623 | 77 | 357 | 0.0 | 3.0 | 0.05 | 0.06 | 0.06 | 82 | 1013.5 |
| 20260904222118 | 77 | 72 | 1.0 | 4.0 | 0.06 | 0.06 | 0.06 | 83 | 1013.5 |
| 20260904221616 | 77 | 72 | 1.0 | 5.0 | 0.06 | 0.06 | 0.06 | 84 | 1013.6 |
| 20260904221519 | 76 | 85 | 1.0 | 5.0 | 0.06 | 0.06 | 0.06 | 85 | 1012.0 |
| 20260904221117 | 76 | 142 | 1.0 | 6.0 | 0.06 | 0.06 | 0.06 | 85 | 1013.9 |
| 20260904220558 | 76 | 9 | 0.0 | 6.0 | 0.06 | 0.06 | 0.06 | 85 | 1013.8 |
| 20260904220059 | 75 | 88 | 0.0 | 1.0 | 0.06 | 0.06 | 0.06 | 88 | 1014.0 |
| 20260904220044 | 75 | 87 | 0.0 | 1.0 | 0.06 | 0.06 | 0.06 | 88 | 1012.2 |
| 20260904215600 | 75 | 104 | 0.0 | 1.0 | 0.06 | 0.06 | 0.06 | 87 | 1014.0 |
| 20260904215029 | 75 | 112 | 0.0 | 1.0 | 0.06 | 0.06 | 0.06 | 86 | 1014.2 |
| 20260904214525 | 74 | 112 | 0.0 | 1.0 | 0.06 | 0.06 | 0.06 | 83 | 1012.0 |
| 20260904214502 | 75 | 112 | 0.0 | 1.0 | 0.06 | 0.06 | 0.06 | 83 | 1013.8 |
| 20260904213958 | 75 | 113 | 1.0 | 5.0 | 0.06 | 0.06 | 0.06 | 82 | 1014.4 |
| 20260904213500 | 76 | 113 | 1.0 | 5.0 | 0.05 | 0.05 | 0.06 | 79 | 1014.5 |
| 20260904213021 | 77 | 308 | 1.0 | 7.0 | 0.05 | 0.05 | 0.05 | 76 | 1012.9 |
| 20260904212955 | 78 | 306 | 1.0 | 7.0 | 0.04 | 0.04 | 0.04 | 76 | 1014.9 |
| 20260904212452 | 79 | 299 | 2.0 | 7.0 | 0.00 | 0.00 | 0.00 | 72 | 1015.3 |
| 20260904211925 | 79 | 351 | 2.0 | 10.0 | 0.00 | 0.00 | 0.00 | 71 | 1015.3 |
| 20260904211500 | 78 | 273 | 2.0 | 10.0 | 0.00 | 0.00 | 0.00 | 71 | 1013.4 |
| 20260904211422 | 79 | 306 | 4.0 | 10.0 | 0.00 | 0.00 | 0.00 | 71 | 1015.2 |
| 20260904210854 | 79 | 326 | 6.0 | 11.0 | 0.00 | 0.00 | 0.00 | 69 | 1014.8 |
| 20260904210349 | 80 | 342 | 6.0 | 11.0 | 0.00 | 0.00 | 0.00 | 68 | 1014.0 |
| 20260904210011 | 80 | 273 | 5.0 | 12.0 | 0.00 | 0.00 | 0.00 | 66 | 1012.3 |
| 20260904205842 | 80 | 273 | 5.0 | 14.0 | 0.00 | 0.00 | 0.00 | 66 | 1014.1 |
| 20260904205341 | 81 | 338 | 5.0 | 11.0 | 0.00 | 0.00 | 0.00 | 65 | 1014.3 |
| 20260904204816 | 82 | 311 | 6.0 | 20.0 | 0.00 | 0.00 | 0.00 | 64 | 1014.4 |
| 20260904204526 | 82 | 338 | 4.0 | 20.0 | 0.00 | 0.00 | 0.00 | 63 | 1012.5 |
| 20260904204249 | 83 | 347 | 7.0 | 23.0 | 0.00 | 0.00 | 0.00 | 61 | 1014.0 |
| 20260904203440 | 88 | 359 | 8.0 | 28.0 | 0.00 | 0.00 | 0.00 | 51 | 1014.3 |
| 20260904203105 | 89 | 301 | 6.0 | 28.0 | 0.00 | 0.00 | 0.00 | 50 | 1012.5 |
| 20260904202716 | 94 | 319 | 5.0 | 28.0 | 0.00 | 0.00 | 0.00 | 43 | 1014.1 |
| 20260904202216 | 99 | 268 | 2.0 | 6.0 | 0.00 | 0.00 | 0.00 | 47 | 1014.1 |
| 20260904201649 | 99 | 170 | 2.0 | 5.0 | 0.00 | 0.00 | 0.00 | 46 | 1013.8 |
| 20260904201512 | 99 | 180 | 2.0 | 5.0 | 0.00 | 0.00 | 0.00 | 47 | 1012.0 |
| 20260904201409 | 99 | 278 | 2.0 | 8.0 | 0.00 | 0.00 | 0.00 | 46 | 1013.8 |
| 20260904200641 | 98 | 185 | 3.0 | 8.0 | 0.00 | 0.00 | 0.00 | 48 | 1013.7 |
| 20260904200115 | 98 | 207 | 3.0 | 9.0 | 0.00 | 0.00 | 0.00 | 47 | 1013.6 |
| 20260904200045 | 98 | 206 | 2.0 | 9.0 | 0.00 | 0.00 | 0.00 | 47 | 1011.7 |
| 20260904195819 | 98 | 194 | 3.0 | 10.0 | 0.00 | 0.00 | 0.00 | 48 | 1013.7 |
| 20260904195023 | 97 | 208 | 3.0 | 10.0 | 0.00 | 0.00 | 0.00 | 48 | 1013.7 |
| 20260904194536 | 96 | 200 | 2.0 | 10.0 | 0.00 | 0.00 | 0.00 | 50 | 1011.9 |
| 20260904194519 | 96 | 201 | 4.0 | 13.0 | 0.00 | 0.00 | 0.00 | 50 | 1013.8 |
| 20260904194016 | 97 | 210 | 5.0 | 13.0 | 0.00 | 0.00 | 0.00 | 47 | 1013.9 |
| 20260904193449 | 96 | 134 | 4.0 | 10.0 | 0.00 | 0.00 | 0.00 | 49 | 1013.8 |
| 20260904193142 | 96 | 170 | 4.0 | 10.0 | 0.00 | 0.00 | 0.00 | 49 | 1013.8 |
| 20260904193103 | 96 | 108 | 5.0 | 8.0 | 0.00 | 0.00 | 0.00 | 49 | 1011.9 |
| 20260904192641 | 96 | 192 | 4.0 | 10.0 | 0.00 | 0.00 | 0.00 | 49 | 1013.8 |
| 20260904191917 | 97 | 194 | 4.0 | 11.0 | 0.00 | 0.00 | 0.00 | 49 | 1013.7 |
| 20260904191603 | 97 | 111 | 1.0 | 11.0 | 0.00 | 0.00 | 0.00 | 49 | 1011.9 |
| 20260904191412 | 97 | 197 | 3.0 | 11.0 | 0.00 | 0.00 | 0.00 | 51 | 1013.8 |
| 20260904190915 | 97 | 208 | 4.0 | 8.0 | 0.00 | 0.00 | 0.00 | 50 | 1013.9 |
| 20260904190349 | 96 | 188 | 4.0 | 10.0 | 0.00 | 0.00 | 0.00 | 50 | 1014.0 |
| 20260904190058 | 95 | 180 | 4.0 | 10.0 | 0.00 | 0.00 | 0.00 | 50 | 1012.2 |
| 20260904185824 | 96 | 164 | 4.0 | 10.0 | 0.00 | 0.00 | 0.00 | 50 | 1014.1 |
| 20260904185321 | 96 | 118 | 3.0 | 8.0 | 0.00 | 0.00 | 0.00 | 51 | 1014.1 |
| 20260904184755 | 96 | 175 | 2.0 | 4.0 | 0.00 | 0.00 | 0.00 | 53 | 1014.3 |
| 20260904184507 | 95 | 174 | 1.0 | 6.0 | 0.00 | 0.00 | 0.00 | 51 | 1012.5 |
| 20260904184237 | 96 | 184 | 3.0 | 10.0 | 0.00 | 0.00 | 0.00 | 51 | 1014.3 |
| 20260904183739 | 96 | 217 | 3.0 | 10.0 | 0.00 | 0.00 | 0.00 | 52 | 1014.3 |
| 20260904183215 | 96 | 192 | 3.0 | 10.0 | 0.00 | 0.00 | 0.00 | 51 | 1014.4 |
| 20260904183035 | 96 | 188 | 3.0 | 9.0 | 0.00 | 0.00 | 0.00 | 50 | 1012.6 |
| 20260904182651 | 97 | 226 | 2.0 | 10.0 | 0.00 | 0.00 | 0.00 | 50 | 1014.4 |
| 20260904182128 | 96 | 230 | 3.0 | 11.0 | 0.00 | 0.00 | 0.00 | 51 | 1014.4 |
| 20260904181631 | 96 | 218 | 4.0 | 11.0 | 0.00 | 0.00 | 0.00 | 51 | 1014.6 |
| 20260904181559 | 96 | 218 | 4.0 | 11.0 | 0.00 | 0.00 | 0.00 | 50 | 1012.8 |
| 20260904181335 | 96 | 205 | 5.0 | 11.0 | 0.00 | 0.00 | 0.00 | 51 | 1014.7 |
| 20260904180540 | 96 | 183 | 4.0 | 11.0 | 0.00 | 0.00 | 0.00 | 52 | 1014.7 |
| 20260904180041 | 96 | 201 | 3.0 | 11.0 | 0.00 | 0.00 | 0.00 | 51 | 1014.9 |
| 20260904180009 | 95 | 201 | 2.0 | 11.0 | 0.00 | 0.00 | 0.00 | 51 | 1013.1 |
| 20260904175523 | 96 | 172 | 3.0 | 11.0 | 0.00 | 0.00 | 0.00 | 51 | 1015.1 |
| 20260904175002 | 96 | 219 | 3.0 | 9.0 | 0.00 | 0.00 | 0.00 | 50 | 1015.1 |
| 20260904174611 | 95 | 139 | 2.0 | 13.0 | 0.00 | 0.00 | 0.00 | 51 | 1013.3 |
| 20260904174459 | 95 | 175 | 5.0 | 13.0 | 0.00 | 0.00 | 0.00 | 53 | 1015.1 |
| 20260904173958 | 95 | 195 | 6.0 | 14.0 | 0.00 | 0.00 | 0.00 | 50 | 1015.2 |
| 20260904173436 | 95 | 107 | 6.0 | 12.0 | 0.00 | 0.00 | 0.00 | 51 | 1015.3 |
| 20260904173049 | 94 | 190 | 7.0 | 14.0 | 0.00 | 0.00 | 0.00 | 50 | 1013.6 |
| 20260904172918 | 95 | 212 | 6.0 | 14.0 | 0.00 | 0.00 | 0.00 | 50 | 1015.4 |
| 20260904172418 | 95 | 168 | 4.0 | 13.0 | 0.00 | 0.00 | 0.00 | 50 | 1015.3 |
| 20260904171910 | 95 | 182 | 4.0 | 13.0 | 0.00 | 0.00 | 0.00 | 50 | 1015.4 |
| 20260904171517 | 94 | 175 | 4.0 | 13.0 | 0.00 | 0.00 | 0.00 | 51 | 1013.6 |
| 20260904171410 | 95 | 211 | 5.0 | 13.0 | 0.00 | 0.00 | 0.00 | 51 | 1015.4 |
| 20260904170911 | 94 | 114 | 5.0 | 13.0 | 0.00 | 0.00 | 0.00 | 52 | 1015.4 |
| 20260904170619 | 94 | 205 | 5.0 | 11.0 | 0.00 | 0.00 | 0.00 | 52 | 1015.4 |
| 20260904170014 | 94 | 155 | 6.0 | 11.0 | 0.00 | 0.00 | 0.00 | 51 | 1013.6 |
| 20260904165854 | 94 | 201 | 4.0 | 11.0 | 0.00 | 0.00 | 0.00 | 52 | 1015.4 |
| 20260904165355 | 94 | 128 | 4.0 | 10.0 | 0.00 | 0.00 | 0.00 | 53 | 1015.5 |
| 20260904165101 | 94 | 187 | 4.0 | 11.0 | 0.00 | 0.00 | 0.00 | 52 | 1015.5 |
| 20260904164504 | 94 | 183 | 4.0 | 11.0 | 0.00 | 0.00 | 0.00 | 52 | 1013.7 |
| 20260904164318 | 94 | 134 | 4.0 | 11.0 | 0.00 | 0.00 | 0.00 | 53 | 1015.5 |
| 20260904163753 | 94 | 173 | 4.0 | 9.0 | 0.00 | 0.00 | 0.00 | 53 | 1015.6 |
| 20260904163233 | 94 | 194 | 5.0 | 12.0 | 0.00 | 0.00 | 0.00 | 54 | 1015.6 |
| 20260904163053 | 94 | 77 | 5.0 | 12.0 | 0.00 | 0.00 | 0.00 | 53 | 1013.7 |
| 20260904162715 | 94 | 190 | 4.0 | 12.0 | 0.00 | 0.00 | 0.00 | 52 | 1015.6 |
| 20260904162209 | 94 | 168 | 4.0 | 9.0 | 0.00 | 0.00 | 0.00 | 56 | 1015.6 |
| 20260904161713 | 94 | 206 | 4.0 | 10.0 | 0.00 | 0.00 | 0.00 | 54 | 1015.7 |
| 20260904161533 | 93 | 197 | 4.0 | 10.0 | 0.00 | 0.00 | 0.00 | 55 | 1013.9 |
| 20260904161146 | 93 | 194 | 4.0 | 10.0 | 0.00 | 0.00 | 0.00 | 56 | 1015.7 |
| 20260904160644 | 93 | 180 | 4.0 | 9.0 | 0.00 | 0.00 | 0.00 | 55 | 1015.8 |
| 20260904160116 | 93 | 172 | 3.0 | 7.0 | 0.00 | 0.00 | 0.00 | 57 | 1015.7 |
| 20260904160059 | 92 | 268 | 1.0 | 7.0 | 0.00 | 0.00 | 0.00 | 58 | 1014.0 |
| 20260904155812 | 93 | 188 | 3.0 | 10.0 | 0.00 | 0.00 | 0.00 | 58 | 1015.7 |
| 20260904155051 | 92 | 212 | 3.0 | 10.0 | 0.00 | 0.00 | 0.00 | 59 | 1015.7 |
| 20260904154555 | 92 | 132 | 3.0 | 11.0 | 0.00 | 0.00 | 0.00 | 59 | 1015.8 |
| 20260904154523 | 92 | 132 | 4.0 | 11.0 | 0.00 | 0.00 | 0.00 | 58 | 1014.0 |
| 20260904154033 | 92 | 205 | 3.0 | 11.0 | 0.00 | 0.00 | 0.00 | 60 | 1015.7 |
| 20260904153754 | 91 | 172 | 4.0 | 10.0 | 0.00 | 0.00 | 0.00 | 60 | 1015.8 |
| 20260904153042 | 91 | 179 | 4.0 | 10.0 | 0.00 | 0.00 | 0.00 | 61 | 1014.0 |
| 20260904153027 | 91 | 289 | 3.0 | 10.0 | 0.00 | 0.00 | 0.00 | 61 | 1015.8 |
| 20260904152526 | 91 | 224 | 3.0 | 8.0 | 0.00 | 0.00 | 0.00 | 62 | 1015.7 |
| 20260904152250 | 90 | 126 | 3.0 | 8.0 | 0.00 | 0.00 | 0.00 | 62 | 1015.6 |
| 20260904151744 | 90 | 200 | 3.0 | 7.0 | 0.00 | 0.00 | 0.00 | 64 | 1015.6 |
| 20260904151557 | 90 | 153 | 2.0 | 6.0 | 0.00 | 0.00 | 0.00 | 64 | 1013.9 |
| 20260904150955 | 90 | 194 | 2.0 | 6.0 | 0.00 | 0.00 | 0.00 | 64 | 1015.6 |
| 20260904150456 | 89 | 172 | 3.0 | 7.0 | 0.00 | 0.00 | 0.00 | 65 | 1015.6 |
| 20260904150214 | 89 | 200 | 3.0 | 8.0 | 0.00 | 0.00 | 0.00 | 64 | 1015.7 |
| 20260904150035 | 88 | 201 | 2.0 | 7.0 | 0.00 | 0.00 | 0.00 | 66 | 1013.9 |
| 20260904145932 | 89 | 201 | 4.0 | 8.0 | 0.00 | 0.00 | 0.00 | 66 | 1015.6 |
| 20260904144948 | 88 | 221 | 3.0 | 8.0 | 0.00 | 0.00 | 0.00 | 66 | 1015.6 |
| 20260904144649 | 88 | 186 | 3.0 | 6.0 | 0.00 | 0.00 | 0.00 | 66 | 1015.5 |
| 20260904144502 | 88 | 172 | 3.0 | 7.0 | 0.00 | 0.00 | 0.00 | 66 | 1013.7 |
| 20260904143856 | 88 | 194 | 3.0 | 9.0 | 0.00 | 0.00 | 0.00 | 65 | 1015.6 |
| 20260904143330 | 88 | 215 | 3.0 | 9.0 | 0.00 | 0.00 | 0.00 | 65 | 1015.6 |
| 20260904143100 | 87 | 183 | 4.0 | 9.0 | 0.00 | 0.00 | 0.00 | 65 | 1013.8 |
| 20260904142825 | 88 | 153 | 3.0 | 7.0 | 0.00 | 0.00 | 0.00 | 67 | 1015.6 |
| 20260904142544 | 87 | 164 | 3.0 | 8.0 | 0.00 | 0.00 | 0.00 | 66 | 1015.6 |
| 20260904141757 | 87 | 204 | 2.0 | 8.0 | 0.00 | 0.00 | 0.00 | 66 | 1015.6 |
| 20260904141529 | 87 | 190 | 1.0 | 5.0 | 0.00 | 0.00 | 0.00 | 69 | 1013.8 |
| 20260904141257 | 87 | 190 | 2.0 | 6.0 | 0.00 | 0.00 | 0.00 | 69 | 1015.5 |
| 20260904140729 | 87 | 211 | 2.0 | 4.0 | 0.00 | 0.00 | 0.00 | 69 | 1015.4 |
| 20260904140229 | 87 | 195 | 2.0 | 4.0 | 0.00 | 0.00 | 0.00 | 70 | 1015.4 |
| 20260904140055 | 86 | 195 | 0.0 | 4.0 | 0.00 | 0.00 | 0.00 | 71 | 1013.6 |
| 20260904135702 | 86 | 195 | 2.0 | 6.0 | 0.00 | 0.00 | 0.00 | 70 | 1015.4 |
| 20260904135158 | 86 | 196 | 2.0 | 6.0 | 0.00 | 0.00 | 0.00 | 71 | 1015.4 |
| 20260904134915 | 85 | 77 | 2.0 | 4.0 | 0.00 | 0.00 | 0.00 | 71 | 1015.6 |
| 20260904134540 | 85 | 173 | 1.0 | 4.0 | 0.00 | 0.00 | 0.00 | 71 | 1013.7 |
| 20260904134420 | 85 | 176 | 2.0 | 3.0 | 0.00 | 0.00 | 0.00 | 72 | 1015.5 |
| 20260904133627 | 85 | 178 | 2.0 | 4.0 | 0.00 | 0.00 | 0.00 | 73 | 1015.6 |
| 20260904133102 | 84 | 180 | 3.0 | 7.0 | 0.00 | 0.00 | 0.00 | 74 | 1015.6 |
| 20260904133035 | 84 | 180 | 1.0 | 6.0 | 0.00 | 0.00 | 0.00 | 74 | 1013.9 |
| 20260904132536 | 84 | 184 | 2.0 | 7.0 | 0.00 | 0.00 | 0.00 | 74 | 1015.6 |
| 20260904132250 | 84 | 196 | 1.0 | 4.0 | 0.00 | 0.00 | 0.00 | 75 | 1015.6 |
| 20260904131531 | 83 | 149 | 2.0 | 4.0 | 0.00 | 0.00 | 0.00 | 76 | 1015.6 |
| 20260904131515 | 83 | 149 | 2.0 | 3.0 | 0.00 | 0.00 | 0.00 | 76 | 1013.9 |
| 20260904131028 | 83 | 149 | 1.0 | 4.0 | 0.00 | 0.00 | 0.00 | 77 | 1015.6 |
| 20260904130525 | 83 | 151 | 1.0 | 3.0 | 0.00 | 0.00 | 0.00 | 77 | 1015.7 |
| 20260904130038 | 82 | 151 | 1.0 | 5.0 | 0.00 | 0.00 | 0.00 | 79 | 1013.9 |
| 20260904130020 | 82 | 151 | 1.0 | 5.0 | 0.00 | 0.00 | 0.00 | 79 | 1015.6 |
| 20260904125519 | 82 | 151 | 1.0 | 5.0 | 0.00 | 0.00 | 0.00 | 78 | 1015.7 |
| 20260904124952 | 82 | 81 | 1.0 | 4.0 | 0.00 | 0.00 | 0.00 | 81 | 1015.7 |
| 20260904124506 | 81 | 80 | 1.0 | 3.0 | 0.00 | 0.00 | 0.00 | 82 | 1013.9 |
| 20260904124425 | 81 | 80 | 1.0 | 4.0 | 0.00 | 0.00 | 0.00 | 82 | 1015.6 |
| 20260904123903 | 81 | 80 | 2.0 | 4.0 | 0.00 | 0.00 | 0.00 | 83 | 1015.6 |
| 20260904123354 | 80 | 80 | 2.0 | 4.0 | 0.00 | 0.00 | 0.00 | 83 | 1015.5 |
| 20260904123009 | 80 | 80 | 2.0 | 3.0 | 0.00 | 0.00 | 0.00 | 83 | 1013.8 |
| 20260904122828 | 80 | 80 | 1.0 | 4.0 | 0.00 | 0.00 | 0.00 | 83 | 1015.5 |
| 20260904122542 | 80 | 78 | 1.0 | 4.0 | 0.00 | 0.00 | 0.00 | 84 | 1015.5 |
| 20260904121820 | 80 | 77 | 0.0 | 4.0 | 0.00 | 0.00 | 0.00 | 84 | 1015.4 |
| 20260904121545 | 79 | 73 | 0.0 | 1.0 | 0.00 | 0.00 | 0.00 | 85 | 1013.6 |
| 20260904121317 | 79 | 118 | 0.0 | 1.0 | 0.00 | 0.00 | 0.00 | 85 | 1015.4 |
| 20260904120814 | 79 | 273 | 0.0 | 1.0 | 0.00 | 0.00 | 0.00 | 86 | 1015.3 |
| 20260904120246 | 79 | 118 | 0.0 | 2.0 | 0.00 | 0.00 | 0.00 | 86 | 1015.3 |
| 20260904120019 | 78 | 118 | 0.0 | 2.0 | 0.00 | 0.00 | 0.00 | 86 | 1013.5 |
| 20260904115742 | 79 | 118 | 0.0 | 2.0 | 0.00 | 0.00 | 0.00 | 86 | 1015.3 |
| 20260904115242 | 79 | 116 | 0.0 | 2.0 | 0.00 | 0.00 | 0.00 | 86 | 1015.2 |
| 20260904114712 | 79 | 118 | 0.0 | 2.0 | 0.00 | 0.00 | 0.00 | 86 | 1015.1 |
| 20260904114510 | 78 | 119 | 0.0 | 2.0 | 0.00 | 0.00 | 0.00 | 86 | 1013.3 |
| 20260904114211 | 78 | 118 | 0.0 | 2.0 | 0.00 | 0.00 | 0.00 | 86 | 1015.0 |
| 20260904113707 | 78 | 111 | 0.0 | 1.0 | 0.00 | 0.00 | 0.00 | 86 | 1015.0 |
| 20260904113205 | 78 | 118 | 0.0 | 1.0 | 0.00 | 0.00 | 0.00 | 86 | 1014.9 |
| 20260904113053 | 78 | 119 | 0.0 | 1.0 | 0.00 | 0.00 | 0.00 | 86 | 1013.2 |
| 20260904112701 | 78 | 120 | 0.0 | 1.0 | 0.00 | 0.00 | 0.00 | 86 | 1015.0 |
| 20260904112139 | 78 | 120 | 0.0 | 1.0 | 0.00 | 0.00 | 0.00 | 86 | 1014.9 |
| 20260904111632 | 78 | 119 | 0.0 | 2.0 | 0.00 | 0.00 | 0.00 | 86 | 1014.8 |
| 20260904111540 | 78 | 120 | 0.0 | 2.0 | 0.00 | 0.00 | 0.00 | 86 | 1013.1 |
| 20260904111133 | 78 | 120 | 0.0 | 2.0 | 0.00 | 0.00 | 0.00 | 86 | 1014.7 |
| 20260904110837 | 78 | 120 | 0.0 | 1.0 | 0.00 | 0.00 | 0.00 | 86 | 1014.6 |
| 20260904110030 | 78 | 120 | 0.0 | 1.0 | 0.00 | 0.00 | 0.00 | 86 | 1012.6 |
| 20260904105753 | 78 | 120 | 0.0 | 2.0 | 0.00 | 0.00 | 0.00 | 87 | 1014.4 |
| 20260904105031 | 78 | 120 | 1.0 | 2.0 | 0.00 | 0.00 | 0.00 | 87 | 1014.2 |
| 20260904104520 | 78 | 121 | 1.0 | 2.0 | 0.00 | 0.00 | 0.00 | 87 | 1012.5 |
| 20260904104501 | 78 | 121 | 1.0 | 2.0 | 0.00 | 0.00 | 0.00 | 87 | 1014.2 |
| 20260904104002 | 78 | 122 | 0.0 | 3.0 | 0.00 | 0.00 | 0.00 | 87 | 1014.2 |
| 20260904103701 | 78 | 121 | 0.0 | 2.0 | 0.00 | 0.00 | 0.00 | 87 | 1014.3 |
| 20260904103120 | 78 | 120 | 0.0 | 2.0 | 0.00 | 0.00 | 0.00 | 86 | 1012.5 |
| 20260904102932 | 78 | 120 | 0.0 | 2.0 | 0.00 | 0.00 | 0.00 | 86 | 1014.3 |
| 20260904102632 | 78 | 121 | 0.0 | 2.0 | 0.00 | 0.00 | 0.00 | 86 | 1014.3 |